Location: Bottom School (historical)
(37.9078°N, 89.3593°W)
Time: 22:33:36
(UTC+00:00)

STRAND 1 - Pass Details

Date: 08 April 2023
Orbit: 767 x 779 km, 98.4° (Epoch: 28 May)

Event Time Altitude Azimuth Distance (km) Brightness Sun altitude
Rises 10:44:49 0° 127° (SE) 3,240 ? -10.0°
Reaches altitude 10° 10:47:40 10° 111° (ESE) 2,315 ? -9.4°
Maximum altitude 10:51:18 20° 65° (ENE) 1,726 ? -8.8°
Drops below altitude 10° 10:54:56 10° 20° (NNE) 2,320 ? -8.1°
Sets 10:57:47 0° 4° (N) 3,249 ? -7.5°
